Location: Unspecified
(48.8656°N, 0.0000°E)
Time: 03:11:16
(UTC+00:00)

Vanguard 1 Rocket - Pass Details

Date: 25 June 2019
Orbit: 651 x 4225 km, 34.3° (Epoch: 18 July)

Event Time Altitude Azimuth Distance (km) Brightness Sun altitude
Rises 16:15:14 0° 231° (SW) 8,162 12.9 34.9°
Reaches altitude 10° 16:22:00 10° 225° (SW) 6,756 12.6 33.8°
Maximum altitude 16:39:03 36° 168° (SSE) 3,510 10.5 31.0°
Drops below altitude 10° 16:49:01 10° 107° (ESE) 3,996 10.2 29.3°
Sets 16:51:50 0° 98° (E) 4,613 10.5 28.9°
